Lawrence, KS

7:26 AM CST on November 22, 2017 (GMT -0600)
Lawrence Municipal

Weather History for KLWC - November, 2013

Change the Weather History Date:

Sunday, November 17, 2013

  Actual Average Record
Temperature  
Mean Temperature 56 °F 43 °F  
Max Temperature 68 °F 55 °F 77 °F (2016)
Min Temperature 43 °F 31 °F 8 °F (2014)
Degree Days  
Heating Degree Days 9 22  
Month to date heating degree days 288 313  
Since 1 July heating degree days 634 677  
Cooling Degree Days 0 0  
Month to date cooling degree days 0 0  
Year to date cooling degree days 1492 1370  
Growing Degree Days 7 (Base 50)    
Moisture  
Dew Point 37 °F    
Average Humidity 47    
Maximum Humidity 78    
Minimum Humidity 16    
Precipitation  
Precipitation 0.00 in 0.05 in 1.79 in (2015)
Month to date precipitation 0.08 1.33  
Year to date precipitation 27.75 36.23  
Sea Level Pressure  
Sea Level Pressure 29.66 in    
Wind  
Wind Speed 19 mph (West)    
Max Wind Speed 36 mph    
Max Gust Speed 48 mph    
Visibility 10 miles    
Events Rain    
T = Trace of Precipitation, MM = Missing Value Source: NWS Daily Summary

Daily Weather History Graph

Daily Weather History Graph

Search for Another Location

Airport or City:

Trip Planner

Search our weather history database for the weather conditions in past years. The results will help you decide how hot, cold, wet, or windy it might be!

Date:

Astronomy

Nov. 17, 2013 Rise Set
Actual Time 7:06 AM CST 5:05 PM CST
Civil Twilight 6:37 AM CST 5:33 PM CST
Nautical Twilight 6:05 AM CST 6:06 PM CST
Astronomical Twilight 5:33 AM CST 6:37 PM CST
Moon 5:22 PM CST (11/17) 7:01 AM CST (11/17)
Length of Visible Light 10h 56m
Length of Day
9h 58m
Full, 100% of the Moon is Illuminated
Nov 17
Full
Nov 25
Last Quarter
Dec 2
New
Dec 9
First Quarter
Dec 17
Full

Hourly Weather History & Observations

Time (CST) Temp. Windchill Dew Point Humidity Pressure Visibility Wind Dir Wind Speed Gust Speed Precip Events Conditions
12:52 AM 68.0 °F - 59.0 °F 73% 29.35 in 10.0 mi South 20.7 mph 32.2 mph 0.00 in Rain Light Rain
1:52 AM 66.9 °F - 59.0 °F 76% 29.33 in 10.0 mi South 19.6 mph 29.9 mph 0.00 in Rain Light Rain
2:52 AM 66.9 °F - 57.0 °F 70% 29.33 in 10.0 mi SSW 20.7 mph 27.6 mph 0.00 in   Clear
3:52 AM 66.9 °F - 55.0 °F 66% 29.32 in 10.0 mi SSW 20.7 mph 27.6 mph N/A   Clear
4:52 AM 66.9 °F - 55.0 °F 66% 29.31 in 10.0 mi SSW 16.1 mph 26.5 mph N/A   Clear
5:52 AM 66.0 °F - 54.0 °F 65% 29.31 in 10.0 mi SSW 23.0 mph 34.5 mph N/A   Clear
6:52 AM 64.0 °F - 43.0 °F 46% 29.38 in 10.0 mi West 27.6 mph 42.6 mph 0.00 in   Clear
7:52 AM 55.9 °F - 36.0 °F 47% 29.47 in 10.0 mi WNW 28.8 mph 38.0 mph N/A   Clear
8:52 AM 57.0 °F - 35.1 °F 44% 29.55 in 10.0 mi NW 18.4 mph 36.8 mph N/A   Clear
9:52 AM 60.1 °F - 37.0 °F 42% 29.60 in 10.0 mi WNW 16.1 mph - N/A   Clear
10:52 AM 64.0 °F - 37.0 °F 37% 29.62 in 10.0 mi West 17.3 mph 25.3 mph N/A   Clear
11:52 AM 66.9 °F - 32.0 °F 27% 29.62 in 10.0 mi West 20.7 mph 28.8 mph N/A   Clear
12:52 PM 66.9 °F - 19.0 °F 16% 29.63 in 10.0 mi West 32.2 mph 44.9 mph N/A   Clear
1:52 PM 66.0 °F - 23.0 °F 20% 29.67 in 10.0 mi West 28.8 mph 40.3 mph N/A   Clear
2:52 PM 64.9 °F - 17.1 °F 16% 29.71 in 10.0 mi West 31.1 mph 40.3 mph N/A   Clear
3:52 PM 63.0 °F - 21.9 °F 21% 29.77 in 10.0 mi WNW 20.7 mph 31.1 mph N/A   Clear
4:52 PM 60.1 °F - 26.1 °F 27% 29.82 in 10.0 mi WNW 20.7 mph 27.6 mph N/A   Clear
5:52 PM 55.9 °F - 28.9 °F 36% 29.87 in 10.0 mi WNW 11.5 mph - N/A   Clear
6:52 PM 48.0 °F - 30.9 °F 52% 29.92 in 10.0 mi WNW 8.1 mph - N/A   Clear
7:52 PM 53.1 °F - 33.1 °F 47% 29.96 in 10.0 mi WNW 15.0 mph - N/A   Clear
8:52 PM 51.1 °F - 34.0 °F 52% 30.01 in 10.0 mi WNW 15.0 mph - N/A   Clear
9:52 PM 48.0 °F - 34.0 °F 58% 30.05 in 10.0 mi NW 8.1 mph - N/A   Clear
10:52 PM 46.9 °F - 34.0 °F 61% 30.09 in 10.0 mi WNW 11.5 mph - N/A   Clear
11:52 PM 43.0 °F 37.7 °F 34.0 °F 71% 30.11 in 10.0 mi WNW 9.2 mph - N/A   Clear